Regional Weather Roundup
Issued by NWS Dallas/Fort Worth, TX

Current Version | Previous Version | Text Only | Print | Product List | Glossary On
Versions: 1 2 3 4 5 6 7 8 9 10 11 12 13 14 15 16 17 18 19 20 21 22 23 24 25 26 27 28 29 30 31 32 33 34 35 36 37 38 39 40 41 42 43 44 45 46 47 48 49 50
000
ASUS44 KFWD 201603
RWRFWD
NORTH TEXAS HOURLY WEATHER ROUNDUP
NATIONAL WEATHER SERVICE FORT WORTH TX
1000 AM CST TUE FEB 20 2018

NOTE: "FAIR" INDICATES FEW OR NO CLOUDS BELOW 12,000 FEET WITH NO
SIGNIFICANT WEATHER AND/OR OBSTRUCTIONS TO VISIBILITY.

TXZ118-119-201700-
DALLAS/FORT WORTH METROPLEX

CITY           SKY/WX    TMP DP  RH WIND       PRES   REMARKS
DFW AIRPORT    CLOUDY    71  64  78 S18G26    29.91R
DALLAS LOVE    CLOUDY    70  64  81 S17G25    29.92R
FTW MEACHAM    CLOUDY    70  65  84 SE18G26   29.90R
DAL-EXECUTIVE  CLOUDY    70  64  81 S13G23    29.92R
FTW-ALLIANCE   TSTM      68  64  87 SW8G20    29.93R
FTW-NAS-JRB    CLOUDY    69  63  81 S13       29.91R
FTW-SPINKS     CLOUDY    68  64  88 SE12G21   29.93R
ARLINGTON      CLOUDY    69  65  86 S12       29.92R
GRAND PRAIRIE  CLOUDY    70  63  78 SE10G17   29.93R
ADDISON        CLOUDY    70  63  78 SE21G33   29.92S
MESQUITE       PTSUNNY   72  63  73 SE25G35   29.92S
LANCASTER      PTSUNNY   70  64  79 SE18G32   29.92F
$$

TXZ091>094-102>105-117-120-121-131>134-201700-
NORTH CENTRAL TEXAS

CITY           SKY/WX    TMP DP  RH WIND       PRES   REMARKS
SHRMAN/DENISON CLOUDY    67  63  85 S22G29    29.92R
GAINESVILLE    HVY RAIN  64  62  92 W18       29.96R
BOWIE          RAIN      61  59  93 SE10G18   29.87R
BRIDGEPORT     TSTM      61  61  99 S6        29.89F
DECATUR        HVY RAIN  60  58  93 W3        29.88F
DENTON         TSTM      62  61  96 W14G28    29.95R FOG
MCKINNEY       CLOUDY    69  66  90 S21       29.91F
BONHAM         FAIR      69  62  80 S21G32    29.92F
GREENVILLE     CLOUDY    72  63  73 SE16G22   29.95F
ROCKWALL       PTSUNNY   71  65  82 S21G30    29.94R
TERRELL        PTSUNNY   73  62  68 S22G33    29.95R
WAXAHACHIE     CLOUDY    70  64  83 SE18G28   29.92S
CLEBURNE       CLOUDY    68  66  94 S18G26    29.93R
GRANBURY       CLOUDY    69  65  86 S9G16     29.91S
$$

TXZ083>090-098>101-113>116-127>130-139>142-154-155-201700-
WESTERN NORTH TEXAS

CITY           SKY/WX    TMP DP  RH WIND       PRES   REMARKS
WICHITA FALLS  PTSUNNY   67  60  78 S17       29.85R
WF-KICKAPOO    CLOUDY    66  62  85 S16G24    29.88S
VERNON         CLOUDY    46  35  65 N30G41    29.93R WCI  37
ABILENE        CLOUDY    68  64  87 S15       29.88R
GRAHAM           N/A     65  65 100 S3        29.86S
BRECKENRIDGE   CLOUDY    68  64  88 S6        29.88R
CISCO            N/A    N/A N/A N/A MISG        N/A
EASTLAND       CLOUDY    64  62  95 S6        29.90R
RANGER           N/A     63  63  99 SW9       29.90
MINERAL WELLS  TSTM      60  59  96 SE15      29.85F FOG
STEPHENVILLE   CLOUDY    66  63  89 S16G29    29.93R VSB 1/4
COMANCHE       LGT RAIN  66  66 100 S17G25    29.90R
BROWNWOOD      CLOUDY    66  66 100 S14       29.91R FOG
COLEMAN        CLOUDY    68  65  89 S10       29.89S
$$

TXZ143>147-156>162-174-175-201700-
CENTRAL TEXAS

CITY           SKY/WX    TMP DP  RH WIND       PRES   REMARKS
WACO           CLOUDY    71  63  75 S22G29    29.91R
WACO-TSTC      CLOUDY    72  64  78 SE17G35     N/A
WACO-MCGREGOR  CLOUDY    70  66  87 S23G35    29.90S
HILLSBORO      CLOUDY    71  67  85 S21G31    29.92R
CORSICANA      CLOUDY    72  64  76 SE22G30   29.95F
MEXIA          CLOUDY    71  64  78 SE18G31   29.94F
HEARNE         CLOUDY    71  67  87 SE12G22   29.99S
CAMERON        CLOUDY    72  65  78 S16G25    29.95F
TEMPLE         LGT RAIN  70  67  90 SE21G35   29.92S
KILLEEN        CLOUDY    66  66 100 SE16      29.91R
KILLEEN-SKYLRK CLOUDY    68  66  93 S21G28    29.92S
FORT HOOD      LGT RAIN  65  65  98 S17G24    29.89R
GATESVILLE     PTSUNNY   68  64  88 S12G23    29.94R
HAMILTON       CLOUDY    69  66  92 S16G25    29.94R
LAMPASAS       CLOUDY    68  64  86 S12G18    29.92R
$$

TXZ095>097-106>112-122>126-135>138-148>153-164>167-201700-
EAST TEXAS

CITY           SKY/WX    TMP DP  RH WIND       PRES   REMARKS
PARIS          CLOUDY    71  62  73 S23G29    29.97S
SULPHUR SPRNGS CLOUDY    73  61  68 S15G23    29.99R
MOUNT PLEASANT PTSUNNY   71  63  76 S10       30.00F
GILMER         CLOUDY    70  63  79 SE12G22   30.00F
MINEOLA        CLOUDY    72  63  73 S8G21     29.97F
TYLER          CLOUDY    73  63  70 S18G26    29.99R
LONGVIEW       PTSUNNY   73  66  78 S14G28    30.01F
MARSHALL       PTSUNNY   71  63  77 MISG      30.04F
ATHENS         CLOUDY    68  61  77 S23G31    29.97S
PALESTINE      CLOUDY    70  64  82 SE12      30.01S
JACKSONVILLE   CLOUDY    71  64  81 S15G26    30.03S
HENDERSON      CLOUDY    73  64  74 SE17G24   30.03F
CENTER         PTSUNNY   73  63  70 S12G25    30.06F
NACOGDOCHES    PTSUNNY   73  65  75 S15       30.04F
LUFKIN         CLOUDY    73  65  75 S16G25    30.04S
$$

SUPPLEMENTAL OBSERVATIONS (NWS FORT WORTH AREA)

CITY           SKY/WX    TMP DP  RH WIND       PRES   REMARKS
$$

SUPPLEMENTAL OBSERVATIONS (NWS NORMAN AREA)

CITY           SKY/WX    TMP DP  RH WIND       PRES   REMARKS
GOODLETT         N/A     38  30  74 N25G33    29.93R WCI  26
ODELL            N/A     37  34  86 N24       29.96R WCI  26
CROWELL          N/A     68  61  76 NW6       29.89R
KNOX CITY        N/A     71  59  66 SW8       29.87R
SEYMOUR          N/A     71  62  74 S17G23    29.86R
$$

SUPPLEMENTAL OBSERVATIONS (NWS SAN ANGELO AREA)

CITY           SKY/WX    TMP DP  RH WIND       PRES   REMARKS
WEINERT        RAIN      69  63  83 S16       29.87R
HASKELL        LGT RAIN  70  61  73 S16       29.86R
THROCKMORTON     N/A     70  63  77 S15G22    29.87R
STAMFORD         N/A     73  64  72 S23       29.86R
CLYDE            N/A     67  64  90 S13       29.90S
$$

SUPPLEMENTAL OBSERVATIONS (NWS SHREVEPORT AREA)

CITY           SKY/WX    TMP DP  RH WIND       PRES   REMARKS
$$

SUPPLEMENTAL OBSERVATIONS ARE A COLLECTION OF AUTOMATED INSTRUMENTS
THAT ARE MAINTAINED BY A VARIETY OF FEDERAL AND STATE AGENCIES.
CERTAIN ELEMENTS...SUCH AS HUMIDITY VALUES AND SUSTAINED WIND
SPEEDS...MAY BE APPROXIMATED.





USA.gov is the U.S. government's official web portal to all federal, state and local government web resources and services.